Notices

What's New in latest Release from April 7th, 2021:

- Updated Glossary, including Speed of Maximum Gust, and Total Hourly Precipitation

- Updated national and regional climate services offices contacts and prices information

- Addition of station inventory lists for 1981-2010, 1971-2000, and 1961-1990 Normals.

If you haven't already, please take our survey and provide feedback about our website: https://eccc.sondage-survey.ca/f/LanguageSelection.aspx?s=442ca660-fcf1-47c0-95a9-59707d6fd709

Hourly Data Report for January 06, 2021

OTTAWA INTL A
ONTARIO
Current Station Operator: NAVCAN

45°19'00.000" N
75°40'00.000" W
114.90 m
6106001
71628
YOW

Download Data

Hourly Data (January 2021)
Hourly Data Report for January 6, 2021
TIME
LST
Temp Definition
°C
Dew Point Definition
°C
Rel Hum Definition
%
Precip. Amount Definition
mm

Wind Dir Definition
10's deg

Wind Spd Definition
km/h
Visibility Definition
km
Stn Press Definition
kPa
Hmdx Definition


Wind Chill Definition


Weather Definition


00:00 -3.2 -4.7 89   19 6 16.1 100.46   -6 LegendNANA
01:00 -3.4 -4.4 93   18 7 9.7 100.48   -6 Fog
02:00 -3.4 -4.2 94   20 4 12.9 100.50   -5 LegendNANA
03:00 -3.4 -4.2 95   19 3 8.1 100.54   -5 Fog
04:00 -3.4 -4.0 95   36 1 24.1 100.51   -4 Mostly Cloudy
05:00 -2.4 -4.1 88   36 9 24.1 100.54   -6 LegendNANA
06:00 -2.7 -4.7 86   33 18 24.1 100.55   -8 LegendNANA
07:00 -3.0 -5.3 85   32 20 24.1 100.59   -9 Cloudy
08:00 -3.2 -5.5 84   33 17 24.1 100.62   -9 LegendNANA
09:00 -3.6 -5.9 84   32 21 24.1 100.71   -10 LegendNANA
10:00 -3.8 -6.0 84   31 18 24.1 100.72   -10 Cloudy
11:00 -3.7 -5.7 86   31 21 24.1 100.69   -10 LegendNANA
12:00 -3.3 -6.3 80   32 20 24.1 100.66   -9 LegendNANA
13:00 -2.9 -7.0 74   33 27 24.1 100.66   -10 Mostly Cloudy
14:00 -3.1 -6.8 75   31 21 24.1 100.65   -9 LegendNANA
15:00 -2.9 -7.4 71   33 28 24.1 100.71   -10 LegendNANA
16:00 -3.2 -7.2 74   32 30 24.1 100.76   -11 Mainly Clear
17:00 -3.8 -7.5 75   32 21 24.1 100.82   -10 LegendNANA
18:00 -3.8 -7.4 76   33 20 24.1 100.87   -10 LegendNANA
19:00 -4.2 -7.7 77   33 21 24.1 100.88   -11 Mostly Cloudy
20:00 -4.6 -7.6 79   32 17 24.1 100.89   -10 LegendNANA
21:00 -4.5 -7.4 80   33 21 24.1 100.89   -11 LegendNANA
22:00 -4.5 -7.4 81   33 18 24.1 100.91   -11 Mostly Cloudy
23:00 -3.7 -6.6 80   33 26 24.1 100.90   -11 LegendNANA

Notes on Data Quality.

Legend

  • E = Estimated
  • M = Missing
  • NA = Not Available*
  • [empty] = Indicates an unobserved value
Date modified: